| time (UTC) | temp C | wind direction | speed KPH | gust KPH | rain 1hr cm | rain 24hr cm | rain mn cm | humidity % | barometer mb |
| 20260507205503 | 10 | 331 | 4.8 | 9.7 | 0.00 | 0.64 | 0.38 | 96 | 1015.1 |
| 20260507205005 | 10 | 346 | 6.4 | 11.3 | 0.00 | 0.81 | 0.30 | 95 | 1013.1 |
| 20260507205003 | 10 | 349 | 4.8 | 9.7 | 0.00 | 0.97 | 0.38 | 96 | 1014.9 |
| 20260507204505 | 10 | 348 | 4.8 | 6.4 | 0.00 | 0.81 | 0.30 | 95 | 1013.3 |
| 20260507204003 | 10 | 335 | 4.8 | 6.4 | 0.00 | 0.97 | 0.38 | 96 | 1015.0 |
| 20260507203505 | 10 | 349 | 6.4 | 12.9 | 0.00 | 0.81 | 0.30 | 94 | 1013.2 |
| 20260507203005 | 10 | 349 | 6.4 | 12.9 | 0.00 | 0.81 | 0.30 | 94 | 1013.0 |
| 20260507203003 | 10 | 351 | 6.4 | 11.3 | 0.00 | 0.97 | 0.38 | 96 | 1015.0 |
| 20260507202505 | 10 | 345 | 4.8 | 9.7 | 0.00 | 0.81 | 0.30 | 94 | 1013.3 |
| 20260507202503 | 10 | 348 | 4.8 | 9.7 | 0.00 | 0.97 | 0.38 | 95 | 1014.9 |
| 20260507202005 | 10 | 325 | 4.8 | 11.3 | 0.00 | 0.81 | 0.30 | 94 | 1013.0 |
| 20260507202003 | 10 | 327 | 4.8 | 9.7 | 0.00 | 0.97 | 0.38 | 95 | 1014.9 |
| 20260507201504 | 10 | 333 | 6.4 | 11.3 | 0.00 | 0.81 | 0.30 | 94 | 1013.1 |
| 20260507201005 | 10 | 355 | 8.0 | 9.7 | 0.00 | 0.81 | 0.30 | 94 | 1012.8 |
| 20260507201003 | 10 | 6 | 4.8 | 8.0 | 0.00 | 0.97 | 0.38 | 95 | 1014.8 |
| 20260507200505 | 10 | 1 | 6.4 | 11.3 | 0.00 | 0.81 | 0.30 | 94 | 1012.9 |
| 20260507200503 | 10 | 344 | 6.4 | 11.3 | 0.00 | 0.97 | 0.38 | 95 | 1014.7 |
| 20260507200009 | 10 | 328 | 6.4 | 11.3 | 0.00 | 0.97 | 0.38 | 95 | 1014.5 |
| 20260507200005 | 10 | 336 | 8.0 | 11.3 | 0.00 | 0.81 | 0.30 | 94 | 1012.8 |
| 20260507195505 | 10 | 324 | 6.4 | 11.3 | 0.00 | 0.81 | 0.30 | 94 | 1012.9 |
| 20260507195503 | 10 | 345 | 4.8 | 11.3 | 0.00 | 0.97 | 0.38 | 95 | 1014.6 |
| 20260507195003 | 10 | 13 | 4.8 | 8.0 | 0.00 | 0.97 | 0.38 | 95 | 1014.8 |
| 20260507194505 | 10 | 312 | 4.8 | 8.0 | 0.00 | 0.81 | 0.30 | 94 | 1012.9 |
| 20260507194503 | 10 | 356 | 4.8 | 8.0 | 0.00 | 0.97 | 0.38 | 94 | 1014.6 |
| 20260507194005 | 10 | 296 | 8.0 | 12.9 | 0.00 | 0.81 | 0.30 | 94 | 1012.7 |
| 20260507193505 | 10 | 318 | 8.0 | 12.9 | 0.00 | 0.81 | 0.30 | 93 | 1012.8 |
| 20260507193503 | 10 | 357 | 8.0 | 12.9 | 0.00 | 0.97 | 0.38 | 94 | 1014.3 |
| 20260507193005 | 10 | 345 | 8.0 | 12.9 | 0.00 | 0.81 | 0.30 | 93 | 1012.6 |
| 20260507192505 | 10 | 342 | 8.0 | 11.3 | 0.00 | 0.81 | 0.30 | 93 | 1012.5 |
| 20260507192503 | 10 | 13 | 8.0 | 11.3 | 0.00 | 0.97 | 0.38 | 94 | 1014.2 |
| 20260507192005 | 10 | 335 | 8.0 | 11.3 | 0.00 | 0.81 | 0.30 | 93 | 1012.5 |
| 20260507191503 | 10 | 340 | 6.4 | 9.7 | 0.00 | 0.97 | 0.38 | 94 | 1014.2 |
| 20260507191005 | 10 | 339 | 6.4 | 9.7 | 0.00 | 0.81 | 0.30 | 93 | 1012.5 |
| 20260507191003 | 10 | 351 | 6.4 | 8.0 | 0.00 | 0.97 | 0.38 | 93 | 1014.2 |
| 20260507190505 | 10 | 331 | 6.4 | 9.7 | 0.00 | 0.81 | 0.30 | 93 | 1012.4 |
| 20260507190010 | 10 | 24 | 6.4 | 9.7 | 0.00 | 0.97 | 0.38 | 93 | 1014.1 |
| 20260507185505 | 11 | 318 | 8.0 | 9.7 | 0.00 | 0.81 | 0.30 | 92 | 1012.5 |
| 20260507185503 | 10 | 7 | 6.4 | 9.7 | 0.00 | 0.97 | 0.38 | 93 | 1014.2 |
| 20260507184505 | 11 | 325 | 8.0 | 12.9 | 0.00 | 0.81 | 0.30 | 91 | 1012.2 |
| 20260507184503 | 10 | 337 | 8.0 | 14.5 | 0.00 | 0.97 | 0.38 | 93 | 1013.9 |
| 20260507184005 | 11 | 313 | 9.7 | 12.9 | 0.00 | 0.81 | 0.30 | 91 | 1012.1 |
| 20260507184003 | 11 | 334 | 9.7 | 14.5 | 0.00 | 0.97 | 0.38 | 93 | 1014.0 |
| 20260507183505 | 11 | 312 | 8.0 | 12.9 | 0.00 | 0.81 | 0.30 | 91 | 1012.0 |
| 20260507183005 | 11 | 334 | 8.0 | 12.9 | 0.00 | 0.81 | 0.30 | 91 | 1012.0 |
| 20260507183003 | 11 | 340 | 6.4 | 11.3 | 0.00 | 0.97 | 0.38 | 91 | 1013.8 |
| 20260507182505 | 11 | 351 | 6.4 | 9.7 | 0.00 | 0.81 | 0.30 | 90 | 1011.9 |
| 20260507182503 | 11 | 357 | 6.4 | 8.0 | 0.00 | 0.97 | 0.38 | 91 | 1013.8 |
| 20260507182005 | 11 | 337 | 6.4 | 8.0 | 0.00 | 0.81 | 0.30 | 90 | 1011.8 |
| 20260507182003 | 11 | 7 | 4.8 | 9.7 | 0.00 | 0.97 | 0.38 | 91 | 1013.6 |
| 20260507181505 | 11 | 322 | 6.4 | 8.0 | 0.00 | 0.81 | 0.30 | 90 | 1011.8 |
| 20260507181003 | 11 | 357 | 6.4 | 9.7 | 0.00 | 0.97 | 0.38 | 91 | 1013.6 |
| 20260507180505 | 11 | 349 | 8.0 | 11.3 | 0.00 | 0.81 | 0.30 | 90 | 1011.6 |
| 20260507180009 | 11 | 353 | 6.4 | 9.7 | 0.00 | 0.97 | 0.38 | 91 | 1013.6 |
| 20260507180005 | 11 | 356 | 8.0 | 11.3 | 0.00 | 0.81 | 0.30 | 90 | 1011.7 |
| 20260507175504 | 11 | 331 | 6.4 | 12.9 | 0.00 | 0.97 | 0.38 | 91 | 1013.7 |
| 20260507175005 | 11 | 332 | 8.0 | 11.3 | 0.00 | 0.81 | 0.30 | 89 | 1011.4 |
| 20260507175003 | 11 | 355 | 8.0 | 12.9 | 0.00 | 0.97 | 0.38 | 90 | 1013.3 |
| 20260507174505 | 11 | 334 | 8.0 | 11.3 | 0.00 | 0.81 | 0.30 | 89 | 1011.5 |
| 20260507174503 | 11 | 11 | 8.0 | 9.7 | 0.00 | 0.97 | 0.38 | 90 | 1013.3 |
| 20260507174004 | 12 | 317 | 8.0 | 12.9 | 0.00 | 0.81 | 0.30 | 88 | 1011.4 |
| 20260507173505 | 12 | 288 | 9.7 | 12.9 | 0.00 | 0.81 | 0.30 | 88 | 1011.5 |
| 20260507173503 | 11 | 17 | 9.7 | 14.5 | 0.00 | 0.97 | 0.38 | 90 | 1013.3 |
| 20260507173005 | 12 | 320 | 8.0 | 11.3 | 0.00 | 0.81 | 0.30 | 88 | 1011.5 |
| 20260507172505 | 12 | 349 | 6.4 | 11.3 | 0.00 | 0.81 | 0.30 | 88 | 1011.4 |
| 20260507172503 | 11 | 12 | 6.4 | 11.3 | 0.00 | 0.97 | 0.38 | 89 | 1013.2 |
| 20260507172005 | 12 | 324 | 6.4 | 11.3 | 0.00 | 0.81 | 0.30 | 88 | 1011.3 |
| 20260507172003 | 12 | 30 | 6.4 | 9.7 | 0.00 | 0.97 | 0.38 | 88 | 1013.4 |
| 20260507171504 | 12 | 324 | 6.4 | 11.3 | 0.00 | 0.81 | 0.30 | 88 | 1011.2 |
| 20260507171003 | 12 | 16 | 8.0 | 9.7 | 0.00 | 0.97 | 0.38 | 88 | 1013.3 |
| 20260507170505 | 12 | 323 | 8.0 | 9.7 | 0.00 | 0.81 | 0.30 | 88 | 1011.0 |
| 20260507170503 | 12 | 15 | 6.4 | 9.7 | 0.00 | 0.97 | 0.38 | 88 | 1013.0 |
| 20260507170010 | 12 | 4 | 6.4 | 9.7 | 0.00 | 0.97 | 0.38 | 88 | 1013.1 |
| 20260507170006 | 12 | 314 | 6.4 | 9.7 | 0.00 | 0.81 | 0.30 | 87 | 1011.0 |
| 20260507165505 | 12 | 312 | 8.0 | 11.3 | 0.00 | 0.81 | 0.30 | 87 | 1011.2 |
| 20260507165503 | 12 | 11 | 6.4 | 9.7 | 0.00 | 0.97 | 0.38 | 88 | 1012.9 |
| 20260507165004 | 12 | 333 | 8.0 | 11.3 | 0.00 | 0.81 | 0.30 | 87 | 1011.0 |
| 20260507164505 | 12 | 346 | 6.4 | 11.3 | 0.00 | 0.81 | 0.30 | 87 | 1010.9 |
| 20260507164003 | 12 | 337 | 8.0 | 12.9 | 0.00 | 0.97 | 0.38 | 87 | 1012.9 |
| 20260507163504 | 12 | 338 | 9.7 | 14.5 | 0.00 | 0.81 | 0.30 | 87 | 1010.8 |
| 20260507163005 | 12 | 337 | 8.0 | 14.5 | 0.00 | 0.81 | 0.30 | 87 | 1010.6 |
| 20260507162003 | 12 | 357 | 9.7 | 14.5 | 0.00 | 0.97 | 0.38 | 87 | 1012.7 |
| 20260507161004 | 13 | 1 | 11.3 | 12.9 | 0.00 | 0.81 | 0.30 | 87 | 1010.7 |
| 20260507160505 | 13 | 357 | 12.9 | 12.9 | 0.00 | 0.81 | 0.30 | 87 | 1010.6 |
| 20260507160503 | 12 | 39 | 9.7 | 14.5 | 0.00 | 0.97 | 0.38 | 86 | 1012.5 |
| 20260507160005 | 13 | 341 | 11.3 | 12.9 | 0.00 | 0.81 | 0.30 | 87 | 1010.7 |
| 20260507155503 | 12 | 295 | 11.3 | 16.1 | 0.00 | 0.97 | 0.38 | 86 | 1012.4 |
| 20260507155005 | 13 | 331 | 11.3 | 16.1 | 0.00 | 0.81 | 0.30 | 87 | 1010.7 |
| 20260507154505 | 13 | 315 | 9.7 | 12.9 | 0.00 | 0.81 | 0.30 | 86 | 1010.7 |
| 20260507154503 | 13 | 10 | 9.7 | 16.1 | 0.00 | 0.97 | 0.38 | 86 | 1012.6 |
| 20260507154005 | 13 | 330 | 9.7 | 16.1 | 0.00 | 0.81 | 0.30 | 86 | 1010.6 |
| 20260507154003 | 13 | 354 | 9.7 | 17.7 | 0.00 | 0.97 | 0.38 | 85 | 1012.5 |
| 20260507153505 | 13 | 338 | 9.7 | 16.1 | 0.00 | 0.81 | 0.30 | 86 | 1010.7 |
| 20260507153503 | 13 | 358 | 9.7 | 17.7 | 0.00 | 0.97 | 0.38 | 85 | 1012.4 |
| 20260507153003 | 13 | 357 | 9.7 | 12.9 | 0.00 | 0.97 | 0.38 | 84 | 1012.4 |
| 20260507152505 | 14 | 324 | 8.0 | 12.9 | 0.00 | 0.81 | 0.30 | 85 | 1010.3 |
| 20260507152503 | 14 | 353 | 8.0 | 11.3 | 0.00 | 0.97 | 0.38 | 84 | 1012.0 |
| 20260507152005 | 14 | 322 | 8.0 | 12.9 | 0.00 | 0.81 | 0.30 | 85 | 1010.1 |
| 20260507152003 | 14 | 321 | 8.0 | 11.3 | 0.00 | 0.97 | 0.38 | 84 | 1012.0 |
| 20260507151505 | 14 | 330 | 9.7 | 12.9 | 0.00 | 0.81 | 0.30 | 85 | 1010.1 |
| 20260507151005 | 15 | 326 | 8.0 | 12.9 | 0.00 | 0.81 | 0.30 | 85 | 1010.3 |
| 20260507150009 | 15 | 349 | 9.7 | 12.9 | 0.03 | 0.97 | 0.38 | 83 | 1012.0 |
| 20260507150006 | 15 | 314 | 9.7 | 12.9 | 0.00 | 0.81 | 0.30 | 84 | 1010.1 |
| 20260507145504 | 15 | 318 | 9.7 | 12.9 | 0.00 | 0.81 | 0.30 | 84 | 1010.0 |
| 20260507145005 | 15 | 317 | 11.3 | 19.3 | 0.00 | 0.81 | 0.30 | 85 | 1010.3 |
| 20260507145003 | 15 | 357 | 11.3 | 19.3 | 0.03 | 0.97 | 0.38 | 83 | 1012.0 |
| 20260507144503 | 15 | 348 | 11.3 | 19.3 | 0.03 | 0.97 | 0.38 | 84 | 1011.8 |
| 20260507144006 | 15 | 304 | 9.7 | 14.5 | 0.00 | 0.81 | 0.30 | 86 | 1010.3 |
| 20260507143505 | 15 | 335 | 11.3 | 14.5 | 0.00 | 0.81 | 0.30 | 86 | 1010.4 |
| 20260507143503 | 15 | 321 | 9.7 | 12.9 | 0.03 | 0.97 | 0.38 | 85 | 1011.9 |
| 20260507143005 | 15 | 348 | 11.3 | 12.9 | 0.00 | 0.81 | 0.30 | 86 | 1010.2 |
| 20260507142505 | 15 | 332 | 9.7 | 14.5 | 0.00 | 0.81 | 0.30 | 86 | 1010.3 |
| 20260507142005 | 15 | 331 | 9.7 | 16.1 | 0.00 | 0.81 | 0.30 | 86 | 1010.3 |
| 20260507141505 | 15 | 325 | 9.7 | 16.1 | 0.00 | 0.81 | 0.30 | 86 | 1010.1 |
| 20260507141503 | 15 | 334 | 11.3 | 16.1 | 0.03 | 0.97 | 0.38 | 85 | 1011.6 |
| 20260507141007 | 15 | 321 | 8.0 | 14.5 | 0.00 | 0.81 | 0.30 | 86 | 1010.0 |
| 20260507140505 | 15 | 319 | 6.4 | 6.4 | 0.00 | 0.81 | 0.30 | 86 | 1010.1 |
| 20260507140010 | 15 | 332 | 6.4 | 8.0 | 0.00 | 0.94 | 0.36 | 85 | 1012.0 |
| 20260507140006 | 15 | 315 | 6.4 | 8.0 | 0.00 | 0.81 | 0.30 | 86 | 1010.2 |
| 20260507135505 | 15 | 294 | 6.4 | 12.9 | 0.00 | 0.81 | 0.30 | 87 | 1010.5 |
| 20260507135503 | 15 | 353 | 6.4 | 12.9 | 0.00 | 0.94 | 0.36 | 85 | 1012.0 |
| 20260507135005 | 15 | 296 | 6.4 | 12.9 | 0.00 | 0.81 | 0.30 | 87 | 1010.2 |
| 20260507135003 | 15 | 354 | 6.4 | 12.9 | 0.00 | 0.94 | 0.36 | 85 | 1011.9 |
| 20260507134504 | 15 | 326 | 6.4 | 8.0 | 0.00 | 0.94 | 0.36 | 85 | 1011.9 |
| 20260507134005 | 15 | 295 | 8.0 | 12.9 | 0.00 | 0.81 | 0.30 | 86 | 1010.3 |
| 20260507134003 | 15 | 291 | 8.0 | 12.9 | 0.00 | 0.94 | 0.36 | 84 | 1012.0 |
| 20260507133503 | 15 | 280 | 8.0 | 12.9 | 0.00 | 0.94 | 0.36 | 84 | 1012.0 |
| 20260507133003 | 15 | 275 | 6.4 | 9.7 | 0.00 | 0.94 | 0.36 | 84 | 1012.1 |
| 20260507132505 | 15 | 303 | 6.4 | 8.0 | 0.00 | 0.81 | 0.30 | 87 | 1010.2 |
| 20260507132003 | 16 | 305 | 6.4 | 9.7 | 0.00 | 0.94 | 0.36 | 84 | 1011.9 |
| 20260507131505 | 16 | 300 | 6.4 | 9.7 | 0.00 | 0.81 | 0.30 | 87 | 1010.2 |
| 20260507131005 | 16 | 307 | 4.8 | 6.4 | 0.00 | 0.81 | 0.30 | 86 | 1010.1 |
| 20260507131003 | 16 | 298 | 4.8 | 6.4 | 0.00 | 0.94 | 0.36 | 83 | 1011.7 |
| 20260507130505 | 16 | 304 | 6.4 | 8.0 | 0.00 | 0.81 | 0.30 | 87 | 1010.1 |
| 20260507130503 | 16 | 304 | 6.4 | 8.0 | 0.00 | 0.94 | 0.36 | 84 | 1011.6 |
| 20260507130005 | 16 | 313 | 6.4 | 8.0 | 0.00 | 0.81 | 0.30 | 87 | 1009.9 |
| 20260507125505 | 16 | 336 | 6.4 | 11.3 | 0.00 | 0.81 | 0.30 | 88 | 1009.9 |
| 20260507125503 | 15 | 11 | 6.4 | 12.9 | 0.00 | 0.94 | 0.36 | 84 | 1011.4 |
| 20260507125005 | 15 | 324 | 4.8 | 12.9 | 0.00 | 0.81 | 0.30 | 89 | 1009.9 |
| 20260507124504 | 15 | 22 | 4.8 | 12.9 | 0.00 | 0.94 | 0.36 | 84 | 1011.7 |
| 20260507124003 | 15 | 19 | 4.8 | 6.4 | 0.00 | 0.94 | 0.36 | 85 | 1011.6 |
| 20260507123504 | 15 | 36 | 3.2 | 6.4 | 0.00 | 0.94 | 0.36 | 86 | 1011.4 |
| 20260507123003 | 15 | 350 | 3.2 | 6.4 | 0.00 | 0.94 | 0.36 | 86 | 1011.6 |
| 20260507122504 | 15 | 322 | 1.6 | 8.0 | 0.00 | 0.81 | 0.30 | 93 | 1010.0 |
| 20260507122005 | 15 | 271 | 3.2 | 8.0 | 0.00 | 0.81 | 0.30 | 94 | 1010.0 |
| 20260507121505 | 15 | 215 | 4.8 | 8.0 | 0.00 | 0.81 | 0.30 | 95 | 1010.2 |
| 20260507121503 | 15 | 29 | 4.8 | 6.4 | 0.00 | 0.94 | 0.36 | 89 | 1011.7 |
| 20260507121005 | 15 | 158 | 4.8 | 4.8 | 0.00 | 0.81 | 0.30 | 95 | 1010.0 |
| 20260507121003 | 15 | 52 | 3.2 | 4.8 | 0.00 | 0.94 | 0.36 | 89 | 1011.7 |
| 20260507120503 | 15 | 77 | 3.2 | 8.0 | 0.00 | 0.94 | 0.36 | 90 | 1011.8 |
| 20260507115505 | 14 | 7 | 1.6 | 8.0 | 0.00 | 0.81 | 0.30 | 98 | 1009.9 |
| 20260507115004 | 14 | 337 | 1.6 | 6.4 | 0.00 | 0.81 | 0.30 | 99 | 1009.9 |
| 20260507114505 | 14 | 331 | 4.8 | 8.0 | 0.00 | 0.81 | 0.30 | 99 | 1010.1 |
| 20260507114503 | 14 | 64 | 4.8 | 6.4 | 0.00 | 0.94 | 0.36 | 94 | 1011.6 |
| 20260507114005 | 13 | 330 | 3.2 | 8.0 | 0.00 | 0.81 | 0.30 | 99 | 1009.9 |
| 20260507113505 | 13 | 351 | 1.6 | 6.4 | 0.00 | 0.81 | 0.30 | 99 | 1010.0 |
| 20260507113503 | 13 | 347 | 3.2 | 6.4 | 0.00 | 0.94 | 0.36 | 96 | 1011.8 |
| 20260507113005 | 13 | 348 | 1.6 | 4.8 | 0.00 | 0.81 | 0.30 | 99 | 1010.2 |
| 20260507112505 | 13 | 4 | 0.0 | 4.8 | 0.00 | 0.81 | 0.30 | 99 | 1010.3 |
| 20260507112503 | 13 | 338 | 4.8 | 6.4 | 0.00 | 0.94 | 0.36 | 97 | 1011.8 |
| 20260507112005 | 13 | 2 | 1.6 | 6.4 | 0.00 | 0.81 | 0.30 | 99 | 1010.3 |
| 20260507112003 | 13 | 6 | 4.8 | 6.4 | 0.00 | 0.94 | 0.36 | 99 | 1012.0 |
| 20260507111506 | 13 | 1 | 1.6 | 6.4 | 0.00 | 0.81 | 0.30 | 99 | 1010.2 |
| 20260507111503 | 13 | 44 | 3.2 | 6.4 | 0.00 | 0.94 | 0.36 | 99 | 1011.6 |
| 20260507111004 | 13 | 158 | 1.6 | 4.8 | 0.00 | 0.81 | 0.30 | 99 | 1010.1 |
| 20260507110505 | 13 | 158 | 1.6 | 4.8 | 0.00 | 0.81 | 0.30 | 99 | 1009.9 |
| 20260507110503 | 13 | 70 | 3.2 | 4.8 | 0.00 | 0.94 | 0.36 | 99 | 1011.7 |
| 20260507110005 | 12 | 0 | 0.0 | 0.0 | 0.00 | 0.81 | 0.30 | 99 | 1009.9 |
| 20260507105504 | 12 | 337 | 0.0 | 3.2 | 0.00 | 0.81 | 0.30 | 97 | 1010.0 |
| 20260507105005 | 12 | 331 | 3.2 | 8.0 | 0.00 | 0.81 | 0.30 | 97 | 1009.9 |
| 20260507104505 | 12 | 321 | 4.8 | 8.0 | 0.00 | 0.81 | 0.30 | 97 | 1009.9 |
| 20260507104004 | 12 | 302 | 4.8 | 8.0 | 0.00 | 0.81 | 0.30 | 97 | 1009.7 |
| 20260507103503 | 12 | 67 | 4.8 | 6.4 | 0.00 | 0.94 | 0.36 | 97 | 1011.5 |
| 20260507103005 | 12 | 292 | 1.6 | 8.0 | 0.00 | 0.81 | 0.30 | 97 | 1009.6 |
| 20260507102505 | 12 | 315 | 1.6 | 6.4 | 0.00 | 0.81 | 0.30 | 97 | 1009.7 |
| 20260507102503 | 12 | 67 | 3.2 | 6.4 | 0.00 | 0.94 | 0.36 | 97 | 1011.4 |
| 20260507102007 | 12 | 321 | 0.0 | 6.4 | 0.00 | 0.81 | 0.30 | 97 | 1009.6 |
| 20260507102004 | 12 | 347 | 3.2 | 6.4 | 0.00 | 0.94 | 0.36 | 97 | 1011.1 |
| 20260507101506 | 12 | 324 | 1.6 | 4.8 | 0.00 | 0.81 | 0.30 | 97 | 1009.7 |
| 20260507101503 | 12 | 309 | 3.2 | 6.4 | 0.00 | 0.94 | 0.36 | 97 | 1011.1 |
| 20260507101004 | 12 | 334 | 4.8 | 4.8 | 0.00 | 0.81 | 0.30 | 97 | 1009.5 |
| 20260507100504 | 12 | 1 | 3.2 | 4.8 | 0.00 | 0.94 | 0.36 | 97 | 1011.2 |
| 20260507100005 | 11 | 338 | 3.2 | 6.4 | 0.00 | 0.81 | 0.30 | 98 | 1009.3 |
| 20260507095505 | 11 | 330 | 3.2 | 6.4 | 0.00 | 0.81 | 0.30 | 98 | 1009.2 |
| 20260507095503 | 12 | 339 | 4.8 | 6.4 | 0.00 | 0.94 | 0.36 | 97 | 1010.8 |
| 20260507095003 | 12 | 357 | 4.8 | 6.4 | 0.00 | 0.94 | 0.36 | 97 | 1010.9 |
| 20260507094505 | 11 | 354 | 4.8 | 8.0 | 0.00 | 0.81 | 0.30 | 98 | 1009.2 |
| 20260507094503 | 12 | 352 | 6.4 | 6.4 | 0.00 | 0.94 | 0.36 | 97 | 1010.7 |
| 20260507094005 | 11 | 359 | 4.8 | 8.0 | 0.00 | 0.81 | 0.30 | 98 | 1009.1 |
| 20260507094003 | 12 | 345 | 6.4 | 6.4 | 0.00 | 0.94 | 0.36 | 97 | 1010.7 |
| 20260507093504 | 11 | 316 | 4.8 | 6.4 | 0.00 | 0.81 | 0.30 | 98 | 1009.1 |
| 20260507093003 | 11 | 350 | 4.8 | 6.4 | 0.00 | 0.94 | 0.36 | 98 | 1011.0 |
| 20260507092505 | 11 | 349 | 4.8 | 8.0 | 0.00 | 0.81 | 0.30 | 98 | 1009.1 |
| 20260507092004 | 11 | 347 | 6.4 | 8.0 | 0.00 | 0.81 | 0.30 | 98 | 1009.2 |
| 20260507091505 | 11 | 343 | 4.8 | 6.4 | 0.00 | 0.81 | 0.30 | 98 | 1009.2 |
| 20260507091003 | 11 | 348 | 4.8 | 6.4 | 0.00 | 0.94 | 0.36 | 98 | 1010.5 |
| 20260507090504 | 11 | 344 | 6.4 | 6.4 | 0.00 | 0.81 | 0.30 | 98 | 1008.9 |
| 20260507090009 | 11 | 344 | 4.8 | 6.4 | 0.00 | 0.94 | 0.36 | 98 | 1010.5 |
| 20260507090006 | 11 | 336 | 4.8 | 6.4 | 0.00 | 0.81 | 0.30 | 98 | 1008.8 |
| 20260507085505 | 11 | 356 | 4.8 | 6.4 | 0.00 | 0.81 | 0.30 | 98 | 1008.7 |
| 20260507085004 | 11 | 357 | 6.4 | 8.0 | 0.00 | 0.81 | 0.30 | 98 | 1008.6 |
| 20260507084505 | 11 | 351 | 6.4 | 9.7 | 0.00 | 0.81 | 0.30 | 98 | 1008.6 |
| 20260507084005 | 11 | 336 | 6.4 | 9.7 | 0.00 | 0.81 | 0.30 | 98 | 1008.5 |
| 20260507084003 | 11 | 351 | 6.4 | 9.7 | 0.00 | 0.94 | 0.36 | 98 | 1010.4 |
| 20260507083505 | 11 | 341 | 6.4 | 9.7 | 0.00 | 0.81 | 0.30 | 98 | 1008.4 |
| 20260507083004 | 11 | 25 | 6.4 | 8.0 | 0.00 | 0.94 | 0.36 | 98 | 1010.0 |
| 20260507082505 | 11 | 346 | 6.4 | 9.7 | 0.00 | 0.81 | 0.30 | 98 | 1008.3 |
| 20260507082003 | 11 | 343 | 6.4 | 11.3 | 0.00 | 0.94 | 0.36 | 98 | 1009.9 |
| 20260507081504 | 11 | 349 | 6.4 | 11.3 | 0.00 | 0.94 | 0.36 | 98 | 1009.5 |
| 20260507081005 | 11 | 1 | 8.0 | 9.7 | 0.00 | 0.81 | 0.30 | 98 | 1008.1 |
| 20260507080505 | 11 | 355 | 8.0 | 8.0 | 0.00 | 0.81 | 0.30 | 98 | 1008.0 |
| 20260507080009 | 11 | 342 | 6.4 | 9.7 | 0.00 | 0.94 | 0.36 | 98 | 1009.8 |
| 20260507080005 | 11 | 339 | 8.0 | 9.7 | 0.00 | 0.81 | 0.30 | 98 | 1008.1 |
| 20260507075505 | 11 | 326 | 6.4 | 9.7 | 0.00 | 0.81 | 0.30 | 98 | 1008.1 |
| 20260507075005 | 11 | 339 | 8.0 | 11.3 | 0.00 | 0.81 | 0.30 | 98 | 1008.0 |
| 20260507074504 | 11 | 342 | 8.0 | 11.3 | 0.00 | 0.81 | 0.30 | 98 | 1007.9 |
| 20260507074005 | 12 | 325 | 8.0 | 11.3 | 0.00 | 0.81 | 0.30 | 97 | 1007.9 |
| 20260507073505 | 12 | 302 | 6.4 | 8.0 | 0.00 | 0.81 | 0.30 | 97 | 1007.8 |
| 20260507073503 | 11 | 322 | 6.4 | 9.7 | 0.00 | 0.94 | 0.36 | 98 | 1009.6 |
| 20260507073004 | 11 | 294 | 6.4 | 9.7 | 0.00 | 0.94 | 0.36 | 98 | 1009.5 |
| 20260507072505 | 12 | 318 | 6.4 | 9.7 | 0.03 | 0.81 | 0.30 | 97 | 1007.7 |
| 20260507072005 | 12 | 313 | 8.0 | 12.9 | 0.05 | 0.81 | 0.30 | 97 | 1007.7 |
| 20260507071505 | 12 | 319 | 8.0 | 12.9 | 0.05 | 0.81 | 0.30 | 97 | 1007.6 |
| 20260507071005 | 12 | 325 | 8.0 | 12.9 | 0.05 | 0.81 | 0.30 | 97 | 1007.5 |
| 20260507070504 | 12 | 331 | 8.0 | 11.3 | 0.10 | 0.81 | 0.30 | 97 | 1007.5 |
| 20260507070009 | 12 | 328 | 6.4 | 11.3 | 0.10 | 0.81 | 0.30 | 97 | 1007.4 |
| 20260507065505 | 12 | 316 | 4.8 | 8.0 | 0.10 | 0.81 | 0.30 | 97 | 1007.3 |
| 20260507065503 | 12 | 316 | 4.8 | 6.4 | 0.10 | 0.94 | 0.36 | 97 | 1009.1 |
| 20260507065004 | 12 | 344 | 3.2 | 6.4 | 0.10 | 0.94 | 0.36 | 99 | 1009.0 |
| 20260507064505 | 12 | 326 | 3.2 | 6.4 | 0.10 | 0.81 | 0.30 | 97 | 1007.0 |
| 20260507064005 | 12 | 355 | 4.8 | 8.0 | 0.10 | 0.81 | 0.30 | 97 | 1006.8 |
| 20260507064003 | 12 | 21 | 4.8 | 6.4 | 0.10 | 0.94 | 0.36 | 97 | 1008.7 |
| 20260507063505 | 12 | 352 | 6.4 | 9.7 | 0.10 | 0.81 | 0.30 | 97 | 1006.7 |
| 20260507063005 | 12 | 354 | 6.4 | 9.7 | 0.05 | 0.79 | 0.28 | 97 | 1006.6 |
| 20260507063003 | 12 | 31 | 6.4 | 8.0 | 0.13 | 0.94 | 0.36 | 97 | 1008.4 |
| 20260507062504 | 12 | 9 | 4.8 | 8.0 | 0.10 | 0.89 | 0.33 | 97 | 1008.3 |
| 20260507062005 | 12 | 332 | 3.2 | 4.8 | 0.10 | 0.76 | 0.23 | 97 | 1006.8 |
| 20260507062003 | 12 | 335 | 3.2 | 4.8 | 0.13 | 0.86 | 0.30 | 97 | 1008.5 |
| 20260507061505 | 12 | 324 | 3.2 | 4.8 | 0.15 | 0.76 | 0.23 | 97 | 1006.8 |
| 20260507061503 | 12 | 345 | 3.2 | 4.8 | 0.18 | 0.86 | 0.30 | 97 | 1008.3 |
| 20260507061004 | 12 | 322 | 4.8 | 4.8 | 0.15 | 0.76 | 0.23 | 97 | 1006.7 |
| 20260507060505 | 12 | 318 | 4.8 | 4.8 | 0.13 | 0.71 | 0.20 | 97 | 1006.7 |
| 20260507060503 | 12 | 347 | 3.2 | 4.8 | 0.15 | 0.84 | 0.28 | 97 | 1008.5 |
| 20260507060010 | 12 | 331 | 3.2 | 6.4 | 0.15 | 0.84 | 0.28 | 97 | 1008.4 |
| 20260507060005 | 12 | 328 | 3.2 | 6.4 | 0.13 | 0.71 | 0.20 | 97 | 1006.6 |
| 20260507055504 | 12 | 338 | 4.8 | 6.4 | 0.13 | 0.71 | 0.20 | 97 | 1006.7 |
| 20260507055005 | 12 | 340 | 4.8 | 6.4 | 0.13 | 0.71 | 0.20 | 97 | 1006.6 |
| 20260507055003 | 12 | 357 | 4.8 | 6.4 | 0.15 | 0.84 | 0.28 | 97 | 1008.4 |
| 20260507054505 | 12 | 334 | 4.8 | 6.4 | 0.13 | 0.71 | 0.20 | 97 | 1006.4 |
| 20260507054003 | 12 | 336 | 4.8 | 6.4 | 0.15 | 0.84 | 0.28 | 97 | 1008.4 |
| 20260507053505 | 12 | 308 | 3.2 | 6.4 | 0.13 | 0.71 | 0.20 | 97 | 1006.4 |
| 20260507053503 | 12 | 329 | 4.8 | 6.4 | 0.15 | 0.84 | 0.28 | 97 | 1008.3 |
| 20260507053005 | 12 | 324 | 3.2 | 4.8 | 0.13 | 0.71 | 0.20 | 97 | 1006.4 |
| 20260507052504 | 12 | 304 | 4.8 | 6.4 | 0.10 | 0.69 | 0.18 | 97 | 1006.5 |
| 20260507052003 | 12 | 277 | 4.8 | 6.4 | 0.03 | 0.71 | 0.15 | 97 | 1008.2 |
| 20260507051504 | 12 | 285 | 4.8 | 6.4 | 0.00 | 0.69 | 0.13 | 97 | 1008.1 |
| 20260507051004 | 12 | 286 | 3.2 | 4.8 | 0.00 | 0.61 | 0.10 | 97 | 1006.4 |
| 20260507050505 | 12 | 277 | 1.6 | 3.2 | 0.00 | 0.61 | 0.10 | 99 | 1006.3 |
| 20260507050503 | 12 | 263 | 1.6 | 3.2 | 0.00 | 0.69 | 0.13 | 97 | 1008.0 |
| 20260507050009 | 12 | 287 | 1.6 | 3.2 | 0.00 | 0.69 | 0.13 | 97 | 1008.0 |
| 20260507050005 | 12 | 306 | 1.6 | 3.2 | 0.00 | 0.61 | 0.10 | 99 | 1006.2 |
| 20260507045505 | 12 | 310 | 1.6 | 3.2 | 0.00 | 0.61 | 0.10 | 99 | 1006.2 |
| 20260507045003 | 12 | 355 | 1.6 | 3.2 | 0.00 | 0.69 | 0.13 | 99 | 1007.7 |
| 20260507044504 | 12 | 330 | 1.6 | 3.2 | 0.00 | 0.61 | 0.10 | 99 | 1006.0 |
| 20260507044005 | 12 | 337 | 1.6 | 3.2 | 0.00 | 0.61 | 0.10 | 99 | 1005.9 |
| 20260507043505 | 12 | 6 | 3.2 | 3.2 | 0.00 | 0.61 | 0.10 | 99 | 1005.8 |
| 20260507043503 | 12 | 23 | 1.6 | 3.2 | 0.03 | 0.69 | 0.13 | 99 | 1007.6 |
| 20260507043004 | 12 | 12 | 1.6 | 3.2 | 0.00 | 0.61 | 0.10 | 99 | 1005.8 |
| 20260507042503 | 12 | 17 | 0.0 | 3.2 | 0.03 | 0.69 | 0.13 | 97 | 1007.6 |
| 20260507042005 | 12 | 341 | 3.2 | 4.8 | 0.00 | 0.61 | 0.10 | 99 | 1005.6 |
| 20260507041504 | 12 | 354 | 3.2 | 4.8 | 0.00 | 0.61 | 0.10 | 99 | 1005.6 |
| 20260507041004 | 12 | 41 | 3.2 | 4.8 | 0.03 | 0.69 | 0.13 | 97 | 1007.3 |
| 20260507040505 | 12 | 356 | 3.2 | 3.2 | 0.00 | 0.61 | 0.10 | 99 | 1005.6 |
| 20260507040503 | 12 | 40 | 3.2 | 4.8 | 0.03 | 0.69 | 0.13 | 97 | 1007.4 |
| 20260507040005 | 12 | 333 | 3.2 | 3.2 | 0.00 | 0.61 | 0.10 | 99 | 1005.6 |
| 20260507035505 | 13 | 318 | 3.2 | 4.8 | 0.00 | 0.61 | 0.10 | 99 | 1005.6 |
| 20260507035005 | 13 | 313 | 3.2 | 4.8 | 0.00 | 0.61 | 0.10 | 99 | 1005.6 |
| 20260507034505 | 13 | 297 | 1.6 | 3.2 | 0.00 | 0.61 | 0.10 | 99 | 1005.4 |
| 20260507034503 | 13 | 312 | 1.6 | 3.2 | 0.03 | 0.69 | 0.13 | 99 | 1007.1 |
| 20260507034005 | 13 | 294 | 1.6 | 3.2 | 0.00 | 0.61 | 0.10 | 99 | 1005.4 |
| 20260507033505 | 13 | 300 | 1.6 | 3.2 | 0.00 | 0.61 | 0.10 | 99 | 1005.3 |
| 20260507033503 | 13 | 315 | 1.6 | 3.2 | 0.00 | 0.66 | 0.10 | 99 | 1007.2 |
| 20260507032504 | 13 | 264 | 3.2 | 8.0 | 0.00 | 0.61 | 0.10 | 99 | 1005.1 |
| 20260507032005 | 13 | 298 | 4.8 | 8.0 | 0.00 | 0.61 | 0.10 | 99 | 1005.4 |
| 20260507031505 | 13 | 300 | 3.2 | 8.0 | 0.00 | 0.61 | 0.10 | 99 | 1005.6 |
| 20260507031004 | 13 | 276 | 1.6 | 4.8 | 0.00 | 0.66 | 0.10 | 99 | 1007.2 |
| 20260507030505 | 13 | 286 | 4.8 | 6.4 | 0.00 | 0.61 | 0.10 | 99 | 1005.3 |
| 20260507030503 | 13 | 279 | 4.8 | 6.4 | 0.00 | 0.66 | 0.10 | 99 | 1007.0 |
| 20260507030009 | 13 | 281 | 4.8 | 6.4 | 0.00 | 0.66 | 0.10 | 99 | 1007.2 |
| 20260507025504 | 13 | 272 | 4.8 | 6.4 | 0.00 | 0.61 | 0.10 | 99 | 1005.2 |
| 20260507025005 | 13 | 278 | 3.2 | 6.4 | 0.00 | 0.61 | 0.10 | 99 | 1005.1 |
| 20260507024503 | 13 | 243 | 1.6 | 3.2 | 0.00 | 0.66 | 0.10 | 99 | 1006.8 |
| 20260507024004 | 13 | 202 | 1.6 | 3.2 | 0.00 | 0.61 | 0.10 | 99 | 1004.9 |
| 20260507023505 | 13 | 260 | 3.2 | 6.4 | 0.00 | 0.61 | 0.10 | 99 | 1005.0 |
| 20260507023005 | 13 | 270 | 1.6 | 6.4 | 0.00 | 0.61 | 0.10 | 99 | 1005.0 |
| 20260507023003 | 13 | 282 | 3.2 | 6.4 | 0.00 | 0.66 | 0.10 | 99 | 1006.7 |
| 20260507022504 | 13 | 85 | 1.6 | 3.2 | 0.00 | 0.66 | 0.10 | 99 | 1006.7 |
| 20260507022005 | 13 | 86 | 1.6 | 3.2 | 0.00 | 0.61 | 0.10 | 99 | 1004.5 |
| 20260507022003 | 13 | 93 | 1.6 | 3.2 | 0.00 | 0.66 | 0.10 | 99 | 1006.5 |
| 20260507021505 | 13 | 72 | 3.2 | 3.2 | 0.00 | 0.61 | 0.10 | 99 | 1004.7 |
| 20260507021005 | 13 | 327 | 3.2 | 3.2 | 0.00 | 0.61 | 0.10 | 99 | 1004.7 |
| 20260507020504 | 13 | 323 | 1.6 | 3.2 | 0.00 | 0.61 | 0.10 | 99 | 1004.7 |
| 20260507020010 | 13 | 78 | 1.6 | 4.8 | 0.00 | 0.66 | 0.10 | 99 | 1006.6 |
| 20260507015504 | 13 | 92 | 3.2 | 4.8 | 0.00 | 0.61 | 0.10 | 99 | 1005.0 |
| 20260507015005 | 13 | 58 | 3.2 | 4.8 | 0.00 | 0.61 | 0.10 | 99 | 1004.9 |
| 20260507015003 | 13 | 83 | 3.2 | 4.8 | 0.00 | 0.66 | 0.10 | 99 | 1006.6 |
| 20260507014505 | 13 | 20 | 4.8 | 6.4 | 0.00 | 0.61 | 0.10 | 99 | 1004.8 |
| 20260507014004 | 13 | 34 | 4.8 | 6.4 | 0.00 | 0.66 | 0.10 | 99 | 1006.5 |
| 20260507013505 | 13 | 8 | 4.8 | 6.4 | 0.00 | 0.61 | 0.10 | 99 | 1004.8 |
| 20260507013005 | 13 | 85 | 4.8 | 6.4 | 0.00 | 0.61 | 0.10 | 99 | 1004.7 |
| 20260507013003 | 13 | 105 | 4.8 | 6.4 | 0.00 | 0.66 | 0.10 | 99 | 1006.5 |
| 20260507012504 | 13 | 110 | 4.8 | 6.4 | 0.00 | 0.61 | 0.10 | 99 | 1004.5 |
| 20260507012005 | 13 | 122 | 6.4 | 6.4 | 0.00 | 0.61 | 0.10 | 99 | 1004.5 |
| 20260507012003 | 13 | 99 | 4.8 | 6.4 | 0.00 | 0.66 | 0.10 | 99 | 1006.3 |
| 20260507011505 | 13 | 89 | 6.4 | 8.0 | 0.00 | 0.61 | 0.10 | 99 | 1004.5 |
| 20260507011503 | 13 | 90 | 6.4 | 6.4 | 0.00 | 0.66 | 0.10 | 99 | 1006.3 |
| 20260507010505 | 13 | 42 | 4.8 | 6.4 | 0.00 | 0.61 | 0.10 | 99 | 1004.6 |
| 20260507010503 | 13 | 43 | 6.4 | 8.0 | 0.00 | 0.66 | 0.10 | 99 | 1006.3 |
| 20260507010010 | 13 | 28 | 3.2 | 6.4 | 0.00 | 0.66 | 0.10 | 99 | 1006.5 |
| 20260507010005 | 13 | 17 | 4.8 | 6.4 | 0.00 | 0.61 | 0.10 | 99 | 1004.6 |
| 20260507005504 | 13 | 82 | 4.8 | 6.4 | 0.00 | 0.61 | 0.10 | 99 | 1004.7 |
| 20260507005005 | 13 | 4 | 6.4 | 9.7 | 0.00 | 0.61 | 0.10 | 98 | 1004.7 |
| 20260507004505 | 13 | 336 | 9.7 | 16.1 | 0.00 | 0.61 | 0.10 | 98 | 1004.7 |
| 20260507004004 | 13 | 325 | 8.0 | 16.1 | 0.00 | 0.61 | 0.10 | 98 | 1004.8 |
| 20260507003505 | 13 | 331 | 6.4 | 12.9 | 0.00 | 0.61 | 0.10 | 98 | 1004.9 |
| 20260507003004 | 13 | 356 | 4.8 | 11.3 | 0.00 | 0.66 | 0.10 | 99 | 1006.5 |
| 20260507002505 | 13 | 333 | 4.8 | 8.0 | 0.00 | 0.61 | 0.10 | 98 | 1005.1 |
| 20260507002503 | 13 | 349 | 4.8 | 6.4 | 0.00 | 0.66 | 0.10 | 99 | 1006.6 |
| 20260507002005 | 13 | 318 | 3.2 | 6.4 | 0.03 | 0.61 | 0.10 | 98 | 1004.9 |
| 20260507002003 | 13 | 353 | 3.2 | 6.4 | 0.00 | 0.66 | 0.10 | 99 | 1006.5 |
| 20260507001504 | 13 | 319 | 3.2 | 6.4 | 0.05 | 0.61 | 0.10 | 98 | 1005.0 |
| 20260507001004 | 13 | 341 | 3.2 | 6.4 | 0.05 | 0.66 | 0.10 | 99 | 1007.0 |
| 20260507000505 | 13 | 326 | 3.2 | 4.8 | 0.05 | 0.61 | 0.10 | 96 | 1005.1 |
| 20260507000503 | 13 | 346 | 3.2 | 4.8 | 0.05 | 0.66 | 0.10 | 99 | 1006.9 |
| 20260507000010 | 13 | 352 | 3.2 | 6.4 | 0.05 | 0.66 | 0.10 | 99 | 1006.9 |
| 20260507000005 | 13 | 338 | 3.2 | 6.4 | 0.05 | 0.61 | 0.10 | 96 | 1005.2 |
| 20260506235505 | 13 | 341 | 4.8 | 6.4 | 0.05 | 0.61 | 0.10 | 96 | 1005.4 |
| 20260506235503 | 13 | 14 | 4.8 | 6.4 | 0.05 | 0.66 | 0.10 | 99 | 1007.0 |
| 20260506235004 | 13 | 38 | 6.4 | 9.7 | 0.05 | 0.66 | 0.10 | 99 | 1006.8 |
| 20260506234504 | 13 | 26 | 4.8 | 9.7 | 0.05 | 0.66 | 0.10 | 99 | 1006.8 |
| 20260506234005 | 13 | 341 | 4.8 | 6.4 | 0.05 | 0.61 | 0.10 | 95 | 1005.1 |
| 20260506234003 | 13 | 340 | 4.8 | 6.4 | 0.05 | 0.66 | 0.10 | 99 | 1006.7 |
| 20260506233505 | 13 | 4 | 6.4 | 8.0 | 0.05 | 0.61 | 0.10 | 95 | 1005.1 |
| 20260506233004 | 13 | 337 | 6.4 | 12.9 | 0.05 | 0.61 | 0.10 | 95 | 1005.0 |
| 20260506232505 | 13 | 312 | 6.4 | 12.9 | 0.05 | 0.61 | 0.10 | 95 | 1005.2 |
| 20260506232503 | 13 | 291 | 6.4 | 14.5 | 0.05 | 0.66 | 0.10 | 97 | 1006.7 |
| 20260506232005 | 13 | 319 | 6.4 | 11.3 | 0.03 | 0.56 | 0.05 | 95 | 1005.4 |
| 20260506231505 | 14 | 317 | 6.4 | 11.3 | 0.00 | 0.53 | 0.03 | 95 | 1005.4 |
| 20260506231005 | 14 | 308 | 6.4 | 9.7 | 0.03 | 0.53 | 0.03 | 95 | 1005.1 |
| 20260506231003 | 13 | 314 | 6.4 | 9.7 | 0.03 | 0.61 | 0.03 | 97 | 1007.0 |
| 20260506230504 | 14 | 298 | 6.4 | 9.7 | 0.03 | 0.53 | 0.03 | 94 | 1005.3 |
| 20260506230009 | 14 | 302 | 4.8 | 6.4 | 0.03 | 0.61 | 0.03 | 96 | 1006.7 |
| 20260506230005 | 14 | 298 | 4.8 | 6.4 | 0.03 | 0.53 | 0.03 | 94 | 1005.1 |
| 20260506225504 | 14 | 350 | 6.4 | 11.3 | 0.03 | 0.61 | 0.03 | 96 | 1006.6 |
| 20260506225005 | 14 | 311 | 6.4 | 12.9 | 0.03 | 0.53 | 0.03 | 94 | 1004.7 |
| 20260506224504 | 14 | 357 | 4.8 | 6.4 | 0.03 | 0.61 | 0.03 | 95 | 1006.5 |
| 20260506224005 | 14 | 5 | 4.8 | 8.0 | 0.03 | 0.53 | 0.03 | 94 | 1004.8 |
| 20260506223504 | 14 | 1 | 4.8 | 6.4 | 0.03 | 0.53 | 0.03 | 94 | 1004.7 |
| 20260506223004 | 14 | 344 | 4.8 | 8.0 | 0.05 | 0.53 | 0.03 | 93 | 1004.7 |
| 20260506222505 | 14 | 338 | 4.8 | 8.0 | 0.05 | 0.53 | 0.03 | 93 | 1004.6 |
| 20260506222004 | 14 | 16 | 6.4 | 6.4 | 0.05 | 0.61 | 0.03 | 94 | 1006.2 |
| 20260506221504 | 14 | 335 | 4.8 | 6.4 | 0.05 | 0.53 | 0.03 | 92 | 1004.8 |
| 20260506221004 | 14 | 11 | 3.2 | 4.8 | 0.05 | 0.56 | 0.00 | 94 | 1006.7 |
| 20260506220505 | 14 | 321 | 0.0 | 6.4 | 0.05 | 0.51 | 0.00 | 91 | 1004.8 |
| 20260506220503 | 14 | 12 | 1.6 | 3.2 | 0.05 | 0.56 | 0.00 | 93 | 1006.3 |
| 20260506220011 | 14 | 342 | 3.2 | 6.4 | 0.13 | 0.56 | 0.00 | 93 | 1006.8 |
| 20260506220005 | 14 | 325 | 3.2 | 6.4 | 0.18 | 0.51 | 0.00 | 91 | 1004.9 |
| 20260506215504 | 14 | 319 | 4.8 | 6.4 | 0.36 | 0.51 | 0.51 | 90 | 1005.0 |
| 20260506215006 | 14 | 308 | 4.8 | 6.4 | 0.51 | 0.51 | 0.51 | 90 | 1005.2 |
| 20260506215004 | 14 | 321 | 4.8 | 6.4 | 0.56 | 0.56 | 0.56 | 91 | 1006.9 |
| 20260506214505 | 14 | 308 | 6.4 | 9.7 | 0.51 | 0.51 | 0.51 | 89 | 1005.3 |
| 20260506214503 | 14 | 324 | 6.4 | 11.3 | 0.56 | 0.56 | 0.56 | 91 | 1006.9 |
| 20260506214003 | 14 | 295 | 8.0 | 11.3 | 0.56 | 0.56 | 0.56 | 90 | 1006.8 |
| 20260506213504 | 14 | 289 | 6.4 | 9.7 | 0.51 | 0.51 | 0.51 | 88 | 1005.3 |
| 20260506213005 | 15 | 284 | 6.4 | 9.7 | 0.48 | 0.48 | 0.48 | 87 | 1005.2 |
| 20260506212504 | 15 | 280 | 6.4 | 9.7 | 0.48 | 0.48 | 0.48 | 86 | 1005.2 |
| 20260506212013 | 14 | 295 | 9.7 | 12.9 | 0.53 | 0.53 | 0.53 | 86 | 1006.9 |
| 20260506212005 | 15 | 303 | 9.7 | 17.7 | 0.48 | 0.48 | 0.48 | 85 | 1005.0 |
| 20260506211724 | 15 | 297 | 11.3 | 17.7 | 0.51 | 0.51 | 0.51 | 86 | 1007.0 |
| 20260506211505 | 15 | 314 | 11.3 | 17.7 | 0.48 | 0.48 | 0.48 | 84 | 1005.0 |
| 20260506211225 | 15 | 305 | 12.9 | 17.7 | 0.51 | 0.51 | 0.51 | 85 | 1006.6 |
| 20260506210231 | 15 | 296 | 12.9 | 17.7 | 0.38 | 0.38 | 0.38 | 79 | 1006.4 |
| 20260506210005 | 15 | 287 | 11.3 | 17.7 | 0.33 | 0.33 | 0.33 | 77 | 1004.7 |
| 20260506205725 | 16 | 301 | 9.7 | 17.7 | 0.30 | 0.30 | 0.30 | 76 | 1006.4 |